カタログに戻る

STARLINK-11588

運用中通信VLEO
NORAD 63319·PAYLOAD·🇺🇸 United States

打ち上げ Mar 18, 2025 から Cape Canaveral Space Force Station

Loading…

次のパス (今後24時間)

TLE

最新Source: CelesTrak SupGP

元期: Sep 14, 2026, 22:48 UTC

1 63319C 25057N   26257.95048611  .00023541  00000+0  18287-3 0  2577
2 63319  43.0004 203.6182 0001609 264.1671 131.5587 15.70823254    18

AllMySatでSTARLINK-11588をリアルタイム追跡

Download on the App Store